Miscellaneous Local Product
Issued by NWS North Platte, NE

Home | Current Version | Previous Version | Text Only | Print | Product List | Glossary On
Versions: 1 2 3 4 5 6 7 8 9 10 11 12 13 14 15 16 17 18 19 20 21 22 23 24 25 26 27 28 29 30 31 32 33 34 35 36 37 38 39 40 41 42 43 44 45 46 47 48 49 50
000
AXUS43 KLBF 010610
MISLBF


WESTERN AND NORTH CENTRAL NEBRASKA HOURLY WEATHER ROUNDUP
NATIONAL WEATHER SERVICE NORTH PLATTE NE
100 AM CDT THU SEP 01 2016

NOTE: "FAIR" INDICATES FEW OR NO CLOUDS BELOW 12,000 FEET WITH NO
SIGNIFICANT WEATHER AND/OR OBSTRUCTIONS TO VISIBILITY.

NOTE: STATIONS NOT REPORTING VARIABLES SUCH AS SKY/WEATHER OR
PRESSURE ARE PROVIDED BY RAWS AND APRS NETWORKS AND ARE NOT UNDER
NATIONAL WEATHER SERVICE QUALITY CONTROL.

...OBSERVATIONS IN AND NEAR THE EASTERN PANHANDLE OF NEBRASKA...

CITY           SKY/WX    TMP DP  RH WIND       PRES   REMARKS
PINE RIDGE     CLEAR     67  60  78 S12G18    30.21S
CHADRON        CLEAR     69  59  70 S22G31    30.18S
ALLIANCE       CLEAR     63  60  90 S12       30.24F
SIDNEY         MOCLDY    63  61  93 S12       30.30R
CRESCENT LAKE    N/A     63  62  95 S7          N/A
$$

...OBSERVATIONS IN NORTHERN NEBRASKA AND FAR SOUTHERN SOUTH DAKOTA...

CITY           SKY/WX    TMP DP  RH WIND       PRES   REMARKS
WINNER         FAIR      70  57  63 S9        30.20S
VALENTINE      CLEAR     64  55  72 S9        30.23R
THEDFORD       CLEAR     56  55  94 CALM      30.26S
AINSWORTH      CLEAR     60  56  85 S6        30.24S
O`NEILL        CLEAR     62  58  88 S3        30.24S
ORD            CLEAR     56  54  93 CALM      30.23R
BROKEN BOW     CLEAR     53  53 100 CALM      30.24S
VALENTINE NWR    N/A     59  56  88 S5          N/A
BUTTE            N/A     61  56  84 SE5         N/A
HALSEY           N/A     63  57  81 S3          N/A
EWING            N/A     60  58  94 CALM        N/A
$$

...OBSERVATIONS IN SOUTHWEST NEBRASKA AND FAR NORTHEAST COLORADO...

CITY           SKY/WX    TMP DP  RH WIND       PRES   REMARKS
WRAY           CLOUDY    64  64 100 CALM      30.27F
HOLYOKE        MOCLDY    63  61  94 SE6       30.28S
IMPERIAL       CLEAR     62  60  93 CALM      30.26S
OGALLALA       PTCLDY    64  62  93 CALM      30.26S
NORTH PLATTE   CLEAR     59  58  96 E3        30.25S FOG
MCCOOK         MOCLDY    63  62  97 E3        30.23S FOG
LEXINGTON      CLEAR     59  57  92 CALM      30.24S
STAPLETON        N/A     59  55  88 CALM        N/A
GOTHENBURG       N/A     63  57  81 CALM        N/A
CALLAWAY         N/A     56  54  93 SE3         N/A
$$

...OBSERVATIONS IN CENTRAL LINCOLN COUNTY AREA...

CITY           SKY/WX    TMP DP  RH WIND       PRES   REMARKS
N.P. AIRPORT   CLEAR     59  58  96 E3        30.25S FOG
N.P. DOWNTOWN    N/A     64  62  92 CALM        N/A
N.P. SOUTHEAST   N/A     62  60  93 CALM        N/A
N.P. HILLCREST   N/A     62  60  94 SE3         N/A
$$

...SOME OBSERVATIONS FROM AROUND THE REGION...

CITY           SKY/WX    TMP DP  RH WIND       PRES   REMARKS
DENVER         PTCLDY    61  54  77 SE13      30.26S
LARAMIE        CLEAR     56  53  90 SE17G28   30.33S
CHEYENNE       CLOUDY    58  55  90 S15       30.32S
SCOTTSBLUFF    CLEAR     62  59  90 E9        30.23F
RAPID CITY     CLEAR     62  54  74 S6        30.17S
BISMARCK       CLEAR     66  61  84 SE15      30.15F
PIERRE         CLEAR     69  57  65 SE10      30.15S
SIOUX FALLS    FAIR      62  58  86 E5        30.22S
OMAHA          FAIR      62  58  86 N7        30.19S
GRAND ISLAND   FAIR      58  57  97 NE3       30.23S
KANSAS CITY    FAIR      64  60  87 N6        30.15R
WICHITA        CLOUDY    74  69  85 NE8       30.12S
OKLAHOMA CITY  CLOUDY    73  71  93 NE6       30.06F
DALLAS         MOCLDY    81  71  71 N9        29.99S
AMARILLO       CLOUDY    66  64  93 SE5       30.22F
DODGE CITY     FAIR      65  64  97 NE7       30.19R
HAYS           FAIR      66  57  72 NE5       30.19F
GOODLAND       CLOUDY    65  63  93 SE6       30.26S
$$




USA.gov is the U.S. government's official web portal to all federal, state and local government web resources and services.